Free Severe Weather Alerts by Email and Text Message   

 
Follow iAlert.com on twitter @ialertcom
Search For Active Alerts in Your Area  
  Hi Guest:  [ Sign-up / Services ] [ Login ]

Current weather by "City, St" or "zip code"  

 

Advertise Here

Hazardous Weather Conditions

Child Abduction Emergency issued June 23 at 10:31PM CDT until June 26 at 7:00PM CDT

Current Conditions: SAN ANTONIO, TEXAS

Mostly Cloudy


87.0 F

Last Updated on Jun 25 2017, 11:55 am CDT
Humidity: 52%
Wind Speed: E 6.9 mph
Barometer 30.17 in
Dewpoint: 67.5 F
Visibility: 10.00 mi
Precip: --
Heat Index: 90 F
Wind Chill: NA
Current conditions at:

Castroville Municipal Airport, TX (KCVB)

Lat: 29.34 Lon: -98.850

Local Radar Image active severe weather and emergency alerts image image weather storm and storm spotter reports image weather observation monitoring service image
Local
Radar
Active
Alerts
Storm Reports Weather
Monitoring

Weather Alert Notification Services


ialert severe weather and emergency alerts by text message and email ialert daily weather forecast by email and text message service ialert real-time weather-observation monitoring and alert notification service ialert storm report monitoring alert notification

Observation History for SAN ANTONIO, TEXAS


Time Wind
(mph)
Vis
(mi)
Weather Precip (in) Temperature (F) Relative
Humidity
Wind
Chill
(°F)
Heat
Index
(°F)
Pressure
Air Dwpt altimeter
(in)
sea level
(mb)
11:55 am CDT E 6.9 10.00 Mostly Cloudy -- 87.0 67.5 52% NA 90 30.17 M
11:35 am CDT NE 4.6 10.00 Partly Cloudy -- 87.0 67.8 52% NA 90 30.18 M
10:55 am CDT E 4.6 10.00 Partly Cloudy -- 85.0 68.0 58% NA 89 30.18 M
9:55 am CDT E 8.1 10.00 Mostly Cloudy -- 81.0 68.4 65% NA 84 30.19 M
9:35 am CDT E 6.9 10.00 Partly Cloudy -- 81.0 68.4 65% NA 84 30.18 M
8:55 am CDT NE 8.1 10.00 Fair -- 79.0 68.2 70% NA NA 30.17 M
8:35 am CDT NE 8.1 10.00 Fair -- 78.0 68.2 72% NA NA 30.17 M
7:55 am CDT NE 6.9 10.00 Partly Cloudy -- 75.0 68.2 78% NA NA 30.15 M
7:35 am CDT NE 3.5 10.00 Mostly Cloudy -- 75.0 68.5 81% NA NA 30.15 M
6:55 am CDT N 0.0 10.00 Partly Cloudy -- 73.0 68.4 85% NA NA 30.14 M
5:55 am CDT NE 3.5 10.00 Fair -- 72.0 68.2 87% NA NA 30.13 M
4:55 am CDT N 0.0 10.00 Fair -- 72.0 67.1 85% NA NA 30.14 M
3:55 am CDT N 0.0 10.00 Fair -- 72.0 66.0 81% NA NA 30.13 M
2:55 am CDT N 0.0 10.00 Overcast -- 74.0 66.2 78% NA NA 30.13 M
1:55 am CDT N 0.0 10.00 Fair -- 74.0 66.2 77% NA NA 30.14 M
12:55 am CDT E 4.6 10.00 Mostly Cloudy -- 76.0 65.8 71% NA NA 30.15 M
12:35 am CDT E 4.6 10.00 Overcast -- 76.0 65.8 71% NA NA 30.16 M
11:55 pm CDT E 3.5 10.00 Overcast -- 76.0 66.4 72% NA NA 30.16 M
11:35 pm CDT E 4.6 10.00 Mostly Cloudy -- 76.0 66.2 71% NA NA 30.16 M
10:55 pm CDT E 4.6 10.00 Partly Cloudy -- 77.0 66.4 71% NA NA 30.14 M
9:55 pm CDT E 9.2 10.00 Fair -- 78.0 65.8 67% NA NA 30.10 M
8:55 pm CDT E 5.8 10.00 Fair -- 79.0 65.7 63% NA NA 30.05 M
8:35 pm CDT E 4.6 10.00 Fair -- 80.0 65.8 62% NA 82 30.05 M
7:55 pm CDT E 3.5 10.00 Fair -- 82.0 65.3 58% NA 84 30.03 M

Regional Weather Observation:


San Antonio, San Antonio International Airport, TX (KSAT)

Mostly Cloudy
84.0 F

Kelly Air Force Base, TX (KSKF)

Partly Cloudy
86.0 F

San Antonio, Stinson Municipal Airport, TX (KSSF)

Overcast
84.0 F

Randolph Air Force Base, TX (KRND)

Mostly Cloudy
85.0 F

New Braunfels, New Braunfels Municipal Airport, TX (KBAZ)

Mostly Cloudy
85.0 F

Kerrville, Kerrville Municipal Airport/Louis Schreiner Field, TX (KERV)

Mostly Cloudy
81.0 F

Advertise Here


Advertise Here